Terminal Aerodrome Forecast
Issued by NWS Amarillo, TX

Home | Current Version | Previous Version | Text Only | Print | Product List | Glossary On
Versions: 1 2 3 4 5 6 7 8 9 10 11 12 13 14 15 16 17 18 19
000
FTUS44 KAMA 170500
TAFDHT
TAF
KDHT 170520Z 1706/1806 21007KT P6SM SCT250
     FM180000 18010G11KT P6SM SCT250=

USA.gov is the U.S. government's official web portal to all federal, state and local government web resources and services.